Terminal Aerodrome Forecast
Issued by NWS Sioux Falls, SD

Home | Current Version | Previous Version | Graphics & Text | Print | Product List | Glossary On
Versions: 1 2 3 4 5 6 7 8 9 10 11 12 13 14 15 16 17 18 19 20 21 22 23 24 25 26 27 28 29 30 31 32
000
FTUS43 KFSD 151557 AAB
TAFSUX
TAF AMD
KSUX 151557Z 1516/1612 01012G20KT P6SM BKN025
     FM151800 01013G18KT P6SM SCT035
     FM152200 36007KT P6SM SCT050
     FM160000 VRB03KT P6SM SKC=

USA.gov is the U.S. government's official web portal to all federal, state and local government web resources and services.